Hourly Weather Budapest

Today, 7 August, Friday

Time Temperature Precipitation Wind Pressure Humidity
00:00 +24°C° 0 mm 3 mps 755 mmHg 66%
01:00 +22°C° 0 mm 3 mps 755 mmHg 70%
02:00 +22°C° 0 mm 3 mps 755 mmHg 70%
03:00 +22°C° 0 mm 3 mps 755 mmHg 71%
04:00 +22°C° 0 mm 3 mps 755 mmHg 71%
05:00 +22°C° 0 mm 3 mps 755 mmHg 69%
06:00 +23°C° 0 mm 4 mps 755 mmHg 67%
07:00 +25°C° 0 mm 4 mps 756 mmHg 63%
08:00 +27°C° 0 mm 5 mps 756 mmHg 58%
09:00 +29°C° 0 mm 5 mps 756 mmHg 54%
10:00 +30°C° 0 mm 5 mps 756 mmHg 49%
11:00 +32°C° 0 mm 5 mps 756 mmHg 46%
12:00 +33°C° 0 mm 5 mps 755 mmHg 42%
13:00 +34°C° 0 mm 5 mps 755 mmHg 39%
14:00 +34°C° 0 mm 5 mps 755 mmHg 39%
15:00 +34°C° 0 mm 5 mps 755 mmHg 40%
16:00 +34°C° 0 mm 5 mps 754 mmHg 40%
17:00 +32°C° 0 mm 4 mps 754 mmHg 46%
18:00 +30°C° 0 mm 3 mps 754 mmHg 51%
19:00 +28°C° 0 mm 2 mps 754 mmHg 57%
20:00 +27°C° 0 mm 2 mps 754 mmHg 59%
21:00 +27°C° 0 mm 2 mps 754 mmHg 60%
22:00 +26°C° 0 mm 2 mps 755 mmHg 62%
23:00 +26°C° 0 mm 2 mps 755 mmHg 63%

Tomorrow, 8 August, Saturday

Time Temperature Precipitation Wind Pressure Humidity
00:00 +25°C° 0 mm 2 mps 755 mmHg 64%
01:00 +25°C° 0 mm 3 mps 755 mmHg 65%
02:00 +24°C° 0 mm 3 mps 755 mmHg 67%
03:00 +24°C° 0 mm 3 mps 755 mmHg 69%
04:00 +24°C° 0 mm 3 mps 755 mmHg 71%
05:00 +24°C° 0 mm 3 mps 755 mmHg 70%
06:00 +25°C° 0 mm 3 mps 755 mmHg 68%
07:00 +26°C° 0 mm 3 mps 755 mmHg 67%
08:00 +28°C° 0 mm 3 mps 755 mmHg 61%
09:00 +29°C° 0 mm 3 mps 755 mmHg 55%
10:00 +31°C° 0 mm 3 mps 755 mmHg 50%
11:00 +33°C° 0 mm 3 mps 755 mmHg 46%
12:00 +34°C° 0 mm 3 mps 755 mmHg 43%
13:00 +35°C° 0 mm 3 mps 754 mmHg 39%
14:00 +35°C° 0 mm 3 mps 754 mmHg 40%
15:00 +35°C° 0 mm 3 mps 754 mmHg 40%
16:00 +35°C° 0 mm 2 mps 753 mmHg 40%
17:00 +32°C° 0 mm 2 mps 753 mmHg 46%
18:00 +30°C° 0 mm 2 mps 753 mmHg 51%
19:00 +29°C° 0 mm 2 mps 753 mmHg 56%
20:00 +28°C° 0.2 mm 1 mps 753 mmHg 58%
21:00 +27°C° 0.2 mm 1 mps 753 mmHg 60%
22:00 +26°C° 0.2 mm 1 mps 753 mmHg 62%
23:00 +26°C° 0.1 mm 1 mps 753 mmHg 65%

Day after tomorrow, 9 August, Sunday

Time Temperature Precipitation Wind Pressure Humidity
00:00 +25°C° 0.1 mm 1 mps 753 mmHg 67%
01:00 +25°C° 0.1 mm 1 mps 753 mmHg 69%
02:00 +24°C° 0.1 mm 1 mps 753 mmHg 71%
03:00 +24°C° 0.1 mm 1 mps 753 mmHg 74%
04:00 +24°C° 0.1 mm 1 mps 753 mmHg 76%
05:00 +25°C° 0 mm 1 mps 753 mmHg 74%
06:00 +25°C° 0 mm 1 mps 753 mmHg 72%
07:00 +26°C° 0 mm 1 mps 753 mmHg 70%
08:00 +28°C° 0 mm 1 mps 753 mmHg 64%
09:00 +29°C° 0 mm 2 mps 753 mmHg 58%
10:00 +31°C° 0 mm 2 mps 753 mmHg 52%
11:00 +32°C° 0 mm 2 mps 753 mmHg 48%
12:00 +34°C° 0 mm 2 mps 753 mmHg 45%
13:00 +34°C° 0 mm 2 mps 753 mmHg 41%
14:00 +34°C° 0 mm 2 mps 752 mmHg 41%
15:00 +34°C° 0 mm 2 mps 752 mmHg 41%
16:00 +34°C° 0 mm 3 mps 752 mmHg 41%
17:00 +32°C° 0 mm 2 mps 752 mmHg 46%
18:00 +30°C° 0 mm 2 mps 751 mmHg 52%
19:00 +29°C° 0 mm 2 mps 751 mmHg 57%
20:00 +28°C° 0 mm 2 mps 752 mmHg 59%
21:00 +27°C° 0 mm 1 mps 752 mmHg 62%
22:00 +26°C° 0 mm 1 mps 752 mmHg 65%
23:00 +26°C° 0 mm 1 mps 752 mmHg 67%

10 August, Monday

Time Temperature Precipitation Wind Pressure Humidity
00:00 +25°C° 0 mm 1 mps 752 mmHg 69%
01:00 +25°C° 0 mm 1 mps 752 mmHg 71%
02:00 +24°C° 0.1 mm 1 mps 752 mmHg 72%
03:00 +24°C° 0.1 mm 1 mps 752 mmHg 74%
04:00 +24°C° 0.1 mm 1 mps 752 mmHg 76%
05:00 +24°C° 0.1 mm 2 mps 752 mmHg 73%
06:00 +25°C° 0.1 mm 2 mps 752 mmHg 70%
07:00 +26°C° 0.1 mm 2 mps 752 mmHg 67%
08:00 +27°C° 0 mm 2 mps 752 mmHg 62%
09:00 +28°C° 0 mm 2 mps 753 mmHg 56%
10:00 +30°C° 0 mm 2 mps 753 mmHg 50%
11:00 +31°C° 0 mm 2 mps 752 mmHg 47%
12:00 +32°C° 0 mm 2 mps 752 mmHg 44%
13:00 +34°C° 0 mm 2 mps 752 mmHg 41%
14:00 +34°C° 0 mm 2 mps 751 mmHg 41%
15:00 +34°C° 0 mm 2 mps 751 mmHg 40%
16:00 +34°C° 0 mm 2 mps 751 mmHg 40%
17:00 +31°C° 0.1 mm 2 mps 751 mmHg 45%
18:00 +30°C° 0.1 mm 2 mps 751 mmHg 49%
19:00 +28°C° 0.1 mm 2 mps 751 mmHg 54%
20:00 +27°C° 0.2 mm 1 mps 752 mmHg 57%
21:00 +27°C° 0.2 mm 1 mps 752 mmHg 60%
22:00 +26°C° 0.2 mm 1 mps 752 mmHg 62%
23:00 +25°C° 0 mm 1 mps 752 mmHg 64%

11 August, Tuesday

Time Temperature Precipitation Wind Pressure Humidity
00:00 +25°C° 0 mm 1 mps 752 mmHg 65%
01:00 +23°C° 0 mm 0 mps 752 mmHg 66%
02:00 +24°C° 0.1 mm 1 mps 752 mmHg 69%
03:00 +24°C° 0.1 mm 1 mps 752 mmHg 71%
04:00 +23°C° 0.1 mm 2 mps 752 mmHg 74%
05:00 +24°C° 0.2 mm 2 mps 752 mmHg 72%
06:00 +25°C° 0.2 mm 2 mps 753 mmHg 70%
07:00 +26°C° 0.2 mm 2 mps 753 mmHg 68%
08:00 +27°C° 0 mm 2 mps 753 mmHg 62%
09:00 +29°C° 0 mm 2 mps 753 mmHg 55%
10:00 +31°C° 0 mm 2 mps 753 mmHg 48%
11:00 +31°C° 0 mm 2 mps 753 mmHg 45%
12:00 +32°C° 0 mm 2 mps 752 mmHg 43%
13:00 +33°C° 0 mm 1 mps 752 mmHg 40%
14:00 +33°C° 0 mm 1 mps 752 mmHg 39%
15:00 +33°C° 0 mm 1 mps 752 mmHg 39%
16:00 +33°C° 0 mm 1 mps 752 mmHg 39%
17:00 +32°C° 0.1 mm 1 mps 752 mmHg 43%
18:00 +31°C° 0.1 mm 1 mps 752 mmHg 47%
19:00 +29°C° 0.1 mm 1 mps 752 mmHg 51%
20:00 +28°C° 0.3 mm 1 mps 752 mmHg 55%
21:00 +27°C° 0.3 mm 1 mps 752 mmHg 58%
22:00 +26°C° 0.3 mm 1 mps 752 mmHg 62%
23:00 +25°C° 0.3 mm 1 mps 752 mmHg 64%

12 August, Wednesday

Time Temperature Precipitation Wind Pressure Humidity
00:00 +25°C° 0.3 mm 1 mps 752 mmHg 66%
01:00 +24°C° 0.3 mm 1 mps 752 mmHg 68%
02:00 +24°C° 0.7 mm 1 mps 752 mmHg 71%
03:00 +24°C° 0.7 mm 1 mps 752 mmHg 74%
04:00 +23°C° 0.7 mm 1 mps 752 mmHg 76%
05:00 +24°C° 0.4 mm 1 mps 752 mmHg 73%
06:00 +25°C° 0.4 mm 2 mps 752 mmHg 71%
07:00 +26°C° 0.4 mm 2 mps 752 mmHg 68%
08:00 +27°C° 0 mm 2 mps 752 mmHg 62%
09:00 +29°C° 0 mm 2 mps 752 mmHg 56%
10:00 +30°C° 0 mm 2 mps 752 mmHg 50%
11:00 +31°C° 0 mm 2 mps 752 mmHg 47%
12:00 +32°C° 0 mm 1 mps 752 mmHg 44%
13:00 +33°C° 0 mm 1 mps 752 mmHg 41%
14:00 +33°C° 0 mm 1 mps 752 mmHg 41%
15:00 +33°C° 0 mm 1 mps 751 mmHg 41%
16:00 +33°C° 0 mm 1 mps 751 mmHg 41%
17:00 +31°C° 0 mm 1 mps 751 mmHg 45%
18:00 +30°C° 0 mm 1 mps 751 mmHg 49%
19:00 +29°C° 0 mm 2 mps 751 mmHg 53%
20:00 +28°C° 0 mm 2 mps 752 mmHg 54%
21:00 +28°C° 0 mm 2 mps 752 mmHg 56%
22:00 +27°C° 0 mm 2 mps 752 mmHg 57%
23:00 +26°C° 0 mm 3 mps 752 mmHg 59%
Show more